Flag for U.S.A. Weather past 2 weeks in Oxnard, California, U.S.A.

Now
68 °F

Sunny.


Feels Like: 68 °F
Forecast: 63 / 79 °F
Wind: 5 mph from West

Location: Oxnard Airport

Current Time: Jul 23, 2014 at 9:40:50 PM

Latest Report: Jul 23, 2014 at 8:51 PM


Visibility: 9 mi

Pressure: 29.88 "Hg

Humidity: 78%

Dew point: 61 °F

Location of OxnardLocation

Historic Weather in Oxnard — Graph

°F

Oxnard temperature yesterday

Maximum temperature yesterday: 74 °F (at 4:51 PM)
Minimum temperature yesterday: 61 °F (at 5:51 AM)
Average temperature yesterday: 67 °F

Past Weeks' High & Low Weather Summary

 TemperatureHumidityPressure
High76 °F (Jul 21, 12:51 PM)91% (Jul 22, 12:51 AM)30.07 "Hg (Jul 22, 12:51 AM)
Low60 °F (Jul 12, 5:51 AM)54% (Jul 21, 1:51 PM)29.84 "Hg (Jul 13, 6:51 PM)
Average68 °F77%29.97 "Hg
* Reported Jul 8 7:51 PM — Jul 23 7:51 PM, Oxnard, Weather by CustomWeather, © 2014

Note: Actual official high and low records may vary slightly from our data, if they occured in-between our weather recording intervals... More about our weather records

Advertising

Oxnard weather history for previous 24 hours

 ConditionsComfort  
Time TempWeatherWind HumidityBarometerVisibility
7:51 PM
Jul 23
69 °FSunny.10 mph76%29.88 "Hg9 mi
6:51 PM72 °FSunny.13 mph68%29.88 "Hg9 mi
5:51 PM73 °FSunny.17 mph66%29.88 "Hg9 mi
4:51 PM74 °FSunny.16 mph64%29.90 "Hg9 mi
3:51 PM75 °FSunny.17 mph62%29.91 "Hg10 mi
2:51 PM76 °FSunny.18 mph60%29.94 "Hg10 mi
1:51 PM76 °FSunny.15 mph60%29.96 "Hg10 mi
12:51 PM75 °FSunny.16 mph60%29.98 "Hg10 mi
11:51 AM75 °FSunny.13 mph66%30.00 "Hg10 mi
10:51 AM73 °FSunny.6 mph64%30.01 "Hg10 mi
9:51 AM72 °FSunny.7 mph66%30.00 "Hg10 mi
8:51 AM70 °FSunny.No wind71%30.01 "Hg10 mi
7:51 AM67 °FSunny.3 mph76%30.01 "Hg9 mi
6:51 AM63 °FClear.3 mph84%29.99 "Hg9 mi
5:51 AM61 °FClear.3 mph87%29.99 "Hg9 mi
4:51 AM62 °FClear.No wind83%29.98 "Hg9 mi
3:51 AM63 °FClear.No wind81%29.98 "Hg10 mi
2:51 AM63 °FClear.No wind84%29.98 "Hg10 mi
1:51 AM63 °FClear.No wind84%29.99 "Hg10 mi
12:51 AM64 °FClear.No wind87%30.00 "Hg10 mi
10:51 PM
Jul 22
66 °FClear.6 mph81%30.01 "Hg10 mi
9:51 PM67 °FClear.8 mph79%30.01 "Hg10 mi
Weather by CustomWeather, © 2014

See weather overviewHow to use our weather pages